Weather in Druzhba

Russia / Republic of Adygea     44°56′02″N   40°22′40″E
temp.,
°C
wind,
m/s
gust,
m/s
humid.,
%
clouds,
%
prec.,
mm/h
press.,
hPa
HPBL,
m
13 june, sun
sun1300:00+17wsw228936 0.1 101316
03:00+16sw229068 0.3 101347
06:00+16wsw229216 0.1 101394
09:00+21nnw11743 0.3 1013532
12:00+23n226491 3.8 10121050
15:00+24n1260100 5.9 10121260
18:00+24wsw1167100 0.1 1011658
21:00+18s2281100 1.8 101212
14 june, mon
mon1400:00+16sw228913 0.0 101213
03:00+15ssw22920 0.0 101221
06:00+16sse22897 0.0 101284
09:00+22e237383 0.0 1011547
12:00+25ene456236 0.0 10111419
15:00+25ne556379 0.1 10101005
18:00+24ene46735 0.3 1010456
21:00+20ene4984100 0.3 1009151
15 june, tue
tue1500:00+19ene498595 0.0 1008173
03:00+19ene498099 0.0 1007193
06:00+18nne1494100 4.3 1008133
09:00+20ene2388100 10.3 1009473
12:00+24nw227480 0.3 1009964
15:00+26nw446519 0.3 10091167
18:00+25nw33710 0.0 1009890
21:00+20nnw22840 0.0 101011
16 june, wed
wed1600:00+18wnw00885 0.0 100911
03:00+17wsw339629 2.4 100959
06:00+17w3698100 4.8 1010276
09:00+17wnw4898100 6.8 1012451
12:00+17nw249155 0.4 1013300
15:00+22nw117294 0.5 1012940
18:00+22nne117446 0.1 1012715
21:00+19ne228897 0.1 101220
17 june, thu
thu1700:00+18ene369256 0.0 1012193
03:00+16ene359635 0.0 101189
06:00+18ene3695100 0.4 1011253
09:00+19nne3591100 3.3 1010403
12:00+21n3488100 0.9 1011623
15:00+19wnw579699 7.9 1012408
18:00+20w589046 1.1 1013662
21:00+17w38973 1.2 1014202